Location: Freistadt
(48.5112°N, 14.5013°E)
Time: 15:08:53
(UTC+02:00)

SEEDS - Visible Passes

Search period start: 27 March 2023 00:00
Search period end: 06 April 2023 00:00
Orbit: 573 x 588 km, 97.6° (Epoch: 26 March)

Date Brightness Start Highest point End Pass type
(mag) Time Alt. Az. Time Alt. Az. Time Alt. Az.
27 Mar ? 04:26:14 10° NNE 04:29:56 30° E 04:33:19 12° SSE visible
27 Mar ? 06:01:37 10° N 06:05:13 29° WNW 06:08:51 10° SW visible
28 Mar ? 04:31:17 10° NNE 04:35:05 34° E 04:38:41 11° SSE visible
28 Mar ? 06:06:50 10° N 06:10:19 26° WNW 06:13:49 10° WSW visible
29 Mar ? 04:36:20 10° NNE 04:40:14 38° E 04:44:00 11° SSE visible
29 Mar ? 06:12:02 10° N 06:15:24 24° WNW 06:18:44 10° WSW visible
30 Mar ? 04:41:21 10° NNE 04:45:21 43° E 04:49:18 10° S visible
31 Mar ? 04:46:23 10° NNE 04:50:27 48° E 04:54:29 10° S visible
01 Apr ? 04:51:25 10° NNE 04:55:31 55° E 04:59:36 10° S visible
02 Apr ? 04:56:25 10° NNE 05:00:35 62° ESE 05:04:42 10° S visible
03 Apr ? 05:01:25 10° NNE 05:05:36 71° ESE 05:09:44 10° S visible
04 Apr ? 05:06:25 10° NNE 05:10:37 80° ESE 05:14:45 10° S visible
05 Apr ? 05:11:24 10° NNE 05:15:35 89° ENE 05:19:45 10° SSW visible
